Location: *
(43.7000°S, 168.7000°W)
Time: 14:59:24
(UTC+00:00)

H-2A R/B - Pass Details

Date: 07 July 2020
Orbit: 500 x 542 km, 97.3° (Epoch: 17 June)

Event Time Altitude Azimuth Distance (km) Brightness Sun altitude
Rises 16:53:14 0° 351° (N) 2,691 6.4 -20.0°
Reaches altitude 10° 16:55:30 10° 341° (NNW) 1,813 5.4 -19.6°
Enters shadow 16:57:14 22° 322° (NW) 1,235 4.4 -19.3°
